sat.trackr.live / text

‹ back to catalog

STARLINK-37002

NORAD 68164 · 2026-049Y

PAYLOAD ACTIVE UNKNOWN

§ Identity

Operator
Country
US
Launch date
2026-03-13
Launch site
AFWTR
Launch vehicle
Mass (kg)
RCS (m²)

Purposes: comms

External: N2YO · Heavens-Above · Gunter

§ Orbital elements

Epoch: 2026-09-19T22:38:33.317088Z

Period
93.91 min
Inclination
97.2843°
Eccentricity
0.0001475
Mean motion
15.33461527 rev/d
Perigee alt
464.5 km
Apogee alt
466.5 km
Semi-major
6,843.6 km
B*
4.2228e-4
RAAN
282.8762°
Arg perigee
96.6939°
Mean anomaly
263.4472°
Rev number
2,941

§ Raw data

STARLINK-370021 68164U 26049Y   26262.94344117  .00013590  00000+0  42228-3 0  99952 68164  97.2843 282.8762 0001475  96.6939 263.4472 15.33461527 29415

JSON: /api/v1/satellites/68164 · /tle

For live sub-satellite position, see the globe view (requires WebGL).

§ Visibility from observer

Set your observer location to see the next 7 days of passes ≥ 10°. The values pass through the URL so the page stays shareable.

No JS? Fill the form by hand. The geolocation button needs JavaScript.